[[{"header":{"parameterUnit":"m.s-1","parameterCategory":1,"la1":30.2991,"la2":30.254,"lo1":-89.0895,"lo2":-89.0444,"dy":0.0017,"dx":0.0017,"nx":28,"ny":28,"refTime":"2023-07-28T09:00:00:Z","depth":0,"parameterNumber":2,"parameterNumberName":"U-component_of_WINDS"},"data":[0,0,0,0,0,0,0,0,0,0,0,0,0,0,0,0,0,0,0,0,0,0,0,0,0,0,0,0,0,0,0,0,0,0,0,0,0,0,0,0,0,0,0,0,0,0,0,0,0,0,0,0,0,0,0,0,0,0,3.3558,3.3558,0,3.3579,3.3579,3.3579,3.3504,3.3501,3.3499,3.3497,3.352,3.3522,3.3525,0,0,0,0,0,0,0,0,0,0,0,0,0,3.3451,3.3453,3.3558,3.3558,3.3558,3.3579,3.3579,3.3579,3.3504,3.3501,3.3499,3.3496,3.3519,3.3522,3.3525,0,0,0,0,0,0,0,0,0,0,0,0,0,3.3487,3.3454,3.3557,3.3523,3.352,3.3579,3.3579,3.3579,3.3505,3.3501,3.3498,3.3495,3.3518,3.3522,3.3526,3.3618,0,0,3.3538,3.354,0,0,0,0,0,0,0,0,3.3485,3.3491,3.3528,3.3525,3.3522,3.3535,3.3549,3.3592,3.3506,3.3511,3.3497,3.3493,3.3527,3.3531,3.3542,3.362,3.362,3.3538,3.3541,3.3543,3.3544,0,0,0,0,0,0,0,3.3483,3.349,3.3566,3.3528,3.3525,3.3506,3.3507,3.3557,3.3538,3.351,3.3504,3.3508,3.3525,3.3538,3.3542,3.3621,3.3538,3.3542,3.3544,3.3546,3.3771,3.3774,0,0,0,0,0,0,3.3485,3.3488,3.3565,3.3566,3.3495,3.3511,3.3512,3.3534,3.3537,3.3534,3.3511,3.3504,3.3533,3.3537,3.3542,3.3647,3.3542,3.3546,3.3549,3.3767,3.3772,3.3775,0,0,0,0,0,0,3.3483,3.3492,3.3564,3.3526,3.3534,3.3516,3.3542,3.3537,3.3549,3.3538,3.3534,3.3527,3.353,3.3537,3.3599,3.3647,3.3548,3.3552,3.3763,3.3769,3.3774,3.386,0,0,0,0,0,0,3.348,3.3492,3.3528,3.3527,3.3536,3.3621,3.3545,3.3539,3.3556,3.3548,3.3552,3.355,3.3528,3.3593,3.3603,3.3651,3.3555,3.3759,3.3766,3.3772,3.3853,3.3868,3.3881,0,0,0,0,0,3.3477,3.3553,3.353,3.354,3.358,3.3624,3.3629,3.3602,3.3561,3.3595,3.3588,3.355,3.3641,3.36,3.3611,3.3661,3.3755,3.3764,3.3771,3.3847,3.3865,3.3881,0,0,0,0,0,0,3.3561,3.3552,3.3527,3.3605,3.3616,3.3611,3.3654,3.3623,3.3646,3.3638,3.3604,3.3606,3.3673,3.3674,3.3628,3.3748,3.3691,3.3701,3.3745,3.3762,3.3776,3.3772,3.3558,0,0,0,0,0,3.3588,3.3625,3.3616,3.3685,3.3692,3.3673,3.3691,3.3669,3.3679,3.3683,3.368,3.3691,3.3721,3.3743,3.3771,3.3854,3.3852,3.3893,3.3907,3.3919,3.3927,3.3966,3.3984,3.3802,3.3802,3.3801,0,0,3.3646,3.3645,3.3671,3.3702,3.3708,3.3745,3.3677,3.3721,3.3747,3.369,3.3747,3.3745,3.3755,3.3827,3.3859,3.383,3.3977,3.3929,3.3938,3.394,3.3976,3.3994,3.4009,3.3807,3.3806,3.3805,0,0,3.3768,3.3774,3.383,3.3836,3.3845,3.3831,3.3845,3.3845,3.384,3.3897,3.3854,3.3886,3.3941,3.3948,3.3959,3.4082,3.4046,3.4092,3.4163,3.4202,3.4217,3.4229,3.4269,3.4284,3.4101,3.4102,3.4102,0,3.3838,3.3892,3.3863,3.3908,3.3921,3.3871,3.3926,3.3934,3.3952,3.3962,3.393,3.3994,3.3998,3.4069,3.4098,3.4111,3.4123,3.409,3.4217,3.4229,3.424,3.4278,3.4293,3.4107,3.4106,3.4106,3.4105,0,3.3976,3.4014,3.4059,3.4074,3.4094,3.4144,3.4121,3.4144,3.4121,3.411,3.4167,3.4169,3.4195,3.4211,3.419,3.4278,3.4259,3.4223,3.4164,3.4263,3.4297,3.4312,3.4114,3.4112,3.4111,3.4109,0,0,3.4151,3.4148,3.4165,3.4169,3.4175,3.4203,3.4251,3.4274,3.4293,3.4307,3.4344,3.439,3.4355,3.4368,3.4347,3.4382,3.4474,3.4341,3.434,3.4362,3.4566,3.459,3.4608,3.4452,3.4455,3.4457,3.4564,0,3.4267,3.4346,3.432,3.44,3.4432,3.4384,3.4425,3.4432,3.4423,3.4449,3.444,3.4471,3.4426,3.4432,3.4465,3.4456,3.4514,3.4448,3.4483,3.4485,3.4478,3.4626,3.4653,3.4754,3.4578,3.458,3.4582,0,3.4414,3.443,3.4513,3.4508,3.4521,3.4558,3.4576,3.4603,3.4609,3.46,3.4613,3.4584,3.4628,3.4572,3.4631,3.4587,3.46,3.4598,3.4601,3.46,3.4536,3.4625,3.4786,3.4799,3.4603,3.4602,3.46,0,3.4527,3.4572,3.4625,3.4631,3.4629,3.4655,3.4656,3.4658,3.4673,3.4689,3.4698,3.472,3.4731,3.4749,3.4726,3.4687,3.4787,3.473,3.4778,3.4779,3.4798,3.4797,3.4959,3.4814,3.4814,3.4814,3.4814,0,3.4657,3.4709,3.4675,3.4708,3.4763,3.4732,3.4788,3.4783,3.4786,3.4815,3.4777,3.4806,3.4776,3.4802,3.4785,3.4834,3.4841,3.4833,3.4827,3.4834,3.4834,3.4839,3.483,3.4818,3.4817,3.4816,3.4816,0,3.4792,3.4773,3.4827,3.4819,3.4818,3.4859,3.4852,3.4881,3.487,3.4908,3.4915,3.4897,3.4925,3.4904,3.4934,3.4922,3.4985,3.4972,3.4982,3.4977,3.5025,3.5019,3.5193,3.5212,3.5059,3.5061,3.5062,0,3.4875,3.4912,3.4908,3.4924,3.4926,3.4954,3.4968,3.494,3.4956,3.4964,3.4992,3.5016,3.5034,3.5081,3.507,3.5091,3.5075,3.5135,3.5078,3.5083,3.5071,3.5067,3.5069,3.5145,3.5147,3.5148,3.515,0,3.5021,3.5009,3.503,3.5047,3.5064,3.5077,3.5086,3.5102,3.5073,3.5093,3.512,3.5134,3.5162,3.5186,3.5202,3.5202,3.517,3.5168,3.5179,3.5185,3.5187,3.5182,3.5008,3.5163,3.5162,3.5161,3.516,3.516,3.5129,3.5158,3.5158,3.5182,3.5186,3.5195,3.522,3.5211,3.5233,3.5252,3.5235,3.5267,3.5269,3.5288,3.5292,3.5316,3.5291,3.531,3.5313,3.5317,3.5321,3.5187,3.532,3.5319,3.5319,3.5319,3.5318,0,3.527,3.5267,3.5289,3.5302,3.532,3.5288,3.5296,3.5314,3.5342,3.5347,3.5364,3.5394,3.5417,3.5407,3.5426,3.5447,3.5433,3.5453,3.5449,3.5449,3.5345,3.533,3.5464,3.5464,3.5464,3.5464,3.5464,3.5464,3.5345,3.5391,3.5378,3.5425,3.5422,3.5451,3.5458,3.5466,3.5469,3.5503,3.5521,3.5514,3.5513,3.5531,3.555,3.5546,3.5553,3.5578,3.5569,3.5471,3.5457,3.5443,3.5429,3.5581,3.5581,3.567,3.5671,3.5672]},{"header":{"parameterUnit":"m.s-1","parameterCategory":1,"la1":30.2991,"la2":30.254,"lo1":-89.0895,"lo2":-89.0444,"dy":0.0017,"dx":0.0017,"nx":28,"ny":28,"refTime":"2023-07-28T09:00:00:Z","depth":0,"parameterNumber":3,"parameterNumberName":"V-component_of_WINDS"},"data":[0,0,0,0,0,0,0,0,0,0,0,0,0,0,0,0,0,0,0,0,0,0,0,0,0,0,0,0,0,0,0,0,0,0,0,0,0,0,0,0,0,0,0,0,0,0,0,0,0,0,0,0,0,0,0,0,0,0,1.3735,1.3737,0,1.3882,1.3883,1.3885,1.3922,1.3921,1.3921,1.392,1.4071,1.4076,1.4081,0,0,0,0,0,0,0,0,0,0,0,0,0,1.3489,1.3494,1.3735,1.3737,1.3739,1.3881,1.3883,1.3885,1.3923,1.3921,1.392,1.3919,1.407,1.4076,1.4081,0,0,0,0,0,0,0,0,0,0,0,0,0,1.3612,1.3495,1.3735,1.3775,1.378,1.3881,1.3883,1.3886,1.3923,1.3921,1.392,1.3919,1.4068,1.4075,1.4082,1.4155,0,0,1.4105,1.4108,0,0,0,0,0,0,0,0,1.3605,1.3621,1.3767,1.3772,1.3778,1.3882,1.3852,1.3976,1.3923,1.3869,1.392,1.3918,1.401,1.4022,1.4052,1.4162,1.4169,1.4105,1.411,1.4113,1.4115,0,0,0,0,0,0,0,1.3596,1.3615,1.3793,1.3769,1.3776,1.3785,1.3801,1.3876,1.3945,1.3873,1.3876,1.3893,1.4012,1.4045,1.4056,1.4171,1.4105,1.4112,1.4116,1.4119,1.4346,1.4348,0,0,0,0,0,0,1.3581,1.3608,1.3789,1.3798,1.3686,1.3791,1.3809,1.385,1.3944,1.3957,1.3894,1.3894,1.4033,1.4047,1.4062,1.4152,1.4113,1.412,1.4124,1.4345,1.4347,1.4349,0,0,0,0,0,0,1.3575,1.3597,1.3783,1.3704,1.3728,1.3797,1.3843,1.3854,1.3886,1.396,1.3973,1.3915,1.4033,1.4051,1.4131,1.4158,1.4123,1.413,1.4343,1.4345,1.4348,1.4334,0,0,0,0,0,0,1.3568,1.3595,1.3623,1.3704,1.3732,1.3849,1.3845,1.3858,1.3899,1.39,1.3983,1.3995,1.4033,1.412,1.4138,1.4168,1.4135,1.4341,1.4344,1.4347,1.4333,1.4336,1.4339,0,0,0,0,0,1.3559,1.3614,1.3624,1.3646,1.3769,1.3851,1.3867,1.3909,1.3901,1.393,1.3977,1.3992,1.4152,1.4128,1.4149,1.4181,1.4339,1.4343,1.4347,1.4331,1.4335,1.4339,0,0,0,0,0,0,1.3536,1.3625,1.3638,1.372,1.3777,1.3857,1.3895,1.3912,1.3974,1.3973,1.4023,1.4041,1.4118,1.4157,1.4129,1.4255,1.4246,1.4254,1.4227,1.4231,1.4234,1.4223,1.4142,0,0,0,0,0,1.354,1.3598,1.3674,1.3739,1.3767,1.3826,1.3864,1.3891,1.3953,1.3977,1.403,1.409,1.4154,1.4195,1.4257,1.4338,1.4357,1.4371,1.4374,1.4376,1.4382,1.4427,1.4434,1.4361,1.4361,1.4361,0,0,1.3549,1.3606,1.364,1.3736,1.3784,1.3844,1.3846,1.391,1.3955,1.3987,1.4066,1.4106,1.4176,1.4257,1.4295,1.4292,1.4406,1.438,1.4382,1.4387,1.4432,1.4438,1.4445,1.4363,1.4363,1.4362,0,0,1.3597,1.3646,1.3705,1.3752,1.3824,1.3862,1.3876,1.3954,1.3981,1.406,1.4085,1.414,1.4249,1.4297,1.4336,1.44,1.4417,1.4419,1.4436,1.4479,1.4484,1.449,1.4512,1.452,1.4425,1.4425,1.4425,0,1.36,1.3691,1.3734,1.3796,1.3837,1.3867,1.3928,1.3972,1.4061,1.4088,1.4084,1.422,1.4269,1.4361,1.4376,1.4407,1.4424,1.441,1.448,1.4486,1.4492,1.4514,1.4522,1.4425,1.4425,1.4425,1.4425,0,1.3691,1.3754,1.3793,1.3877,1.3922,1.3983,1.4035,1.4076,1.4099,1.4137,1.4217,1.4277,1.4352,1.4375,1.4399,1.447,1.4466,1.447,1.4462,1.4498,1.4519,1.4528,1.4425,1.4425,1.4425,1.4425,0,0,1.373,1.3834,1.3848,1.3886,1.3966,1.4016,1.4078,1.415,1.4184,1.4244,1.4297,1.4387,1.4391,1.4435,1.4464,1.4501,1.4547,1.4501,1.4503,1.4507,1.4629,1.4625,1.4634,1.4558,1.456,1.4562,1.4623,0,1.3788,1.3899,1.3938,1.4029,1.4087,1.4116,1.417,1.4225,1.4263,1.4317,1.4359,1.4422,1.4422,1.4449,1.4488,1.4534,1.4573,1.453,1.4608,1.4611,1.459,1.4646,1.4643,1.4698,1.4632,1.4633,1.4634,0,1.387,1.393,1.4026,1.4098,1.4124,1.4172,1.424,1.4292,1.4355,1.438,1.4428,1.4454,1.4519,1.4506,1.4597,1.4567,1.4601,1.4628,1.4632,1.4641,1.4625,1.4656,1.4716,1.4724,1.4648,1.4647,1.4646,0,1.3888,1.3992,1.4063,1.4095,1.4181,1.4213,1.4251,1.4312,1.4352,1.4412,1.4439,1.4506,1.4543,1.4594,1.4637,1.4624,1.4724,1.4715,1.4746,1.4745,1.4767,1.4765,1.4833,1.4789,1.4788,1.4788,1.4788,0,1.3949,1.4007,1.4072,1.4116,1.4182,1.4226,1.429,1.4329,1.4383,1.4435,1.4465,1.4513,1.4567,1.4622,1.4656,1.4726,1.4742,1.4764,1.4773,1.4762,1.4759,1.4785,1.4782,1.4791,1.479,1.479,1.4789,0,1.398,1.4026,1.4105,1.4179,1.4199,1.4244,1.4308,1.4352,1.4389,1.4455,1.4473,1.4533,1.4599,1.4647,1.4733,1.4756,1.483,1.4839,1.4809,1.4813,1.4842,1.4838,1.4929,1.4943,1.489,1.489,1.489,0,1.4015,1.406,1.4139,1.4175,1.4212,1.427,1.4311,1.4356,1.4397,1.4471,1.4506,1.4574,1.4631,1.4735,1.4787,1.4853,1.4863,1.489,1.4873,1.486,1.4863,1.486,1.4864,1.4893,1.4893,1.4893,1.4893,0,1.4073,1.4094,1.4151,1.4216,1.4263,1.4317,1.4371,1.44,1.4454,1.4499,1.4566,1.461,1.4697,1.4764,1.4834,1.4873,1.4893,1.4898,1.4909,1.4898,1.4879,1.4889,1.4816,1.4896,1.4896,1.4896,1.4896,1.4895,1.4108,1.4149,1.421,1.4272,1.4317,1.4367,1.4411,1.4454,1.4511,1.4584,1.4607,1.4677,1.4738,1.4834,1.4873,1.4929,1.4928,1.4943,1.4948,1.4951,1.495,1.487,1.4942,1.4942,1.4942,1.4942,1.4942,0,1.4167,1.4207,1.4264,1.4338,1.4387,1.44,1.446,1.45,1.4561,1.4616,1.467,1.4747,1.4812,1.4868,1.4935,1.4969,1.4979,1.4985,1.4983,1.4991,1.4947,1.4931,1.4975,1.4975,1.4975,1.4975,1.4975,1.4975,1.4204,1.4273,1.43,1.4392,1.4433,1.45,1.4533,1.4579,1.4623,1.4707,1.4761,1.4796,1.4851,1.4922,1.4982,1.4997,1.502,1.5024,1.5041,1.4998,1.4995,1.4991,1.4976,1.5029,1.5029,1.508,1.5081,1.5081]}]]